Weather History for Murray, KY

Change the Weather History Date:

Sunday, March 23, 2014

  Actual Average (KPAH) Record (KPAH)
Temperature  
Mean Temperature 39 °F 50 °F  
Max Temperature 46 °F 62 °F 81 °F (1987)
Min Temperature 32 °F 40 °F 19 °F (1960)
Degree Days  
Heating Degree Days 26 15  
Month to date heating degree days 416  
Since 1 July heating degree days 3712  
Cooling Degree Days 0 0  
Month to date cooling degree days 0  
Year to date cooling degree days 0  
Moisture  
Dew Point 24 °F    
Average Humidity 53    
Maximum Humidity 75    
Minimum Humidity 34    
Precipitation  
Precipitation 0.00 in 0.13 in 2.78 in (1958)
Month to date precipitation 2.81  
Year to date precipitation 10.40  
Snow  
Snow 0.00 in 0.00 in T in (2008)
Month to date snowfall 0.6  
Since 1 July snowfall 9.1  
Snow Depth -    
Sea Level Pressure  
Sea Level Pressure 30.28 in    
Wind  
Wind Speed 13 mph (NNE)    
Max Wind Speed 20 mph    
Max Gust Speed 25 mph    
Visibility 10 miles    
Events      
T = Trace of Precipitation, MM = Missing Value Source: NWS Daily Summary

Daily Weather History Graph

Daily Weather History Graph

Search for Another Location

Airport:

Trip Planner

Search our weather history database for the weather conditions in past years. The results will help you decide how hot, cold, wet, or windy it might be!

Date:

Astronomy

Mar. 23, 2014 Rise Set
Actual Time 6:52 AM CDT 7:07 PM CDT
Civil Twilight 6:26 AM CDT 7:33 PM CDT
Nautical Twilight 5:56 AM CDT 8:04 PM CDT
Astronomical Twilight 5:25 AM CDT 8:34 PM CDT
Moon 1:17 AM CDT (3/23) 11:41 AM CDT (3/23)
Length of Visible Light 13h 06m
Length of Day
12h 15m
Waning Gibbous, 54% of the Moon is Illuminated
Mar 23
Waning Gibbous
Mar 23
Last Quarter
Mar 30
New
Apr 7
First Quarter
Apr 15
Full

Hourly Weather History & Observations

Time (CDT) Temp. Windchill Dew Point Humidity Pressure Visibility Wind Dir Wind Speed Gust Speed Precip Events Conditions
12:15 AM 44.6 °F 38.8 °F 32.0 °F 61% 30.20 in 10.0 mi North 11.5 mph - N/A   Overcast
12:35 AM 42.8 °F 36.6 °F 32.0 °F 66% 30.20 in 10.0 mi North 11.5 mph - N/A   Overcast
12:55 AM 42.8 °F 36.2 °F 32.0 °F 66% 30.21 in 10.0 mi North 12.7 mph 20.7 mph N/A   Overcast
1:15 AM 42.8 °F 36.6 °F 32.0 °F 66% 30.21 in 10.0 mi North 11.5 mph - N/A   Overcast
1:35 AM 41.0 °F 33.9 °F 32.0 °F 70% 30.20 in 9.0 mi North 12.7 mph 17.3 mph N/A   Overcast
1:55 AM 41.0 °F 33.5 °F 32.0 °F 70% 30.21 in 10.0 mi North 13.8 mph 19.6 mph N/A   Overcast
2:15 AM 41.0 °F 33.1 °F 32.0 °F 70% 30.20 in 10.0 mi North 15.0 mph 18.4 mph N/A   Mostly Cloudy
2:35 AM 41.0 °F 34.7 °F 32.0 °F 70% 30.21 in 10.0 mi North 10.4 mph - N/A   Overcast
2:55 AM 41.0 °F 33.1 °F 32.0 °F 70% 30.21 in 10.0 mi NNE 15.0 mph 21.9 mph N/A   Overcast
3:15 AM 39.2 °F 31.2 °F 32.0 °F 75% 30.20 in 10.0 mi North 13.8 mph 20.7 mph N/A   Overcast
3:35 AM 39.2 °F 30.8 °F 30.2 °F 70% 30.20 in 10.0 mi NNE 15.0 mph 19.6 mph N/A   Mostly Cloudy
3:55 AM 39.2 °F 31.2 °F 30.2 °F 70% 30.20 in 10.0 mi North 13.8 mph 18.4 mph N/A   Mostly Cloudy
4:15 AM 39.2 °F 30.2 °F 28.4 °F 65% 30.20 in 10.0 mi NNE 17.3 mph 21.9 mph N/A   Overcast
4:35 AM 39.2 °F 30.8 °F 28.4 °F 65% 30.22 in 10.0 mi North 15.0 mph 18.4 mph N/A   Overcast
4:55 AM 39.2 °F 30.5 °F 28.4 °F 65% 30.21 in 10.0 mi North 16.1 mph 23.0 mph N/A   Overcast
5:15 AM 37.4 °F 29.8 °F 28.4 °F 70% 30.22 in 10.0 mi North 11.5 mph 20.7 mph N/A   Overcast
5:35 AM 37.4 °F 29.8 °F 28.4 °F 70% 30.24 in 10.0 mi North 11.5 mph 20.7 mph N/A   Overcast
5:55 AM 37.4 °F 28.9 °F 28.4 °F 70% 30.26 in 10.0 mi North 13.8 mph 20.7 mph N/A   Overcast
6:15 AM 37.4 °F 28.2 °F 28.4 °F 70% 30.25 in 10.0 mi North 16.1 mph 20.7 mph N/A   Mostly Cloudy
6:35 AM 37.4 °F 28.9 °F 28.4 °F 70% 30.26 in 10.0 mi NNE 13.8 mph - N/A   Mostly Cloudy
6:55 AM 35.6 °F 26.2 °F 26.6 °F 70% 30.28 in 10.0 mi North 15.0 mph 20.7 mph N/A   Partly Cloudy
7:15 AM 35.6 °F 27.5 °F 24.8 °F 65% 30.28 in 10.0 mi North 11.5 mph 17.3 mph N/A   Scattered Clouds
7:35 AM 35.6 °F 25.5 °F 24.8 °F 65% 30.28 in 10.0 mi NNE 17.3 mph - N/A   Scattered Clouds
7:55 AM 35.6 °F 25.9 °F 24.8 °F 65% 30.30 in 10.0 mi NNE 16.1 mph 24.2 mph N/A   Mostly Cloudy
8:15 AM 35.6 °F 25.9 °F 24.8 °F 65% 30.31 in 10.0 mi North 16.1 mph 24.2 mph N/A   Scattered Clouds
8:35 AM 37.4 °F 28.2 °F 24.8 °F 60% 30.31 in 10.0 mi North 16.1 mph 24.2 mph N/A   Clear
8:55 AM 37.4 °F 28.5 °F 24.8 °F 60% 30.32 in 10.0 mi North 15.0 mph 24.2 mph N/A   Clear
9:15 AM 37.4 °F 27.8 °F 24.8 °F 60% 30.33 in 10.0 mi North 17.3 mph 25.3 mph N/A   Clear
9:35 AM 37.4 °F 27.5 °F 24.8 °F 60% 30.33 in 10.0 mi NNE 18.4 mph 25.3 mph N/A   Clear
9:55 AM 39.2 °F 29.8 °F 24.8 °F 56% 30.33 in 10.0 mi North 18.4 mph 24.2 mph N/A   Clear
10:15 AM 39.2 °F 30.2 °F 23.0 °F 52% 30.32 in 10.0 mi NE 17.3 mph 23.0 mph N/A   Clear
10:35 AM 41.0 °F 32.5 °F 24.8 °F 53% 30.32 in 10.0 mi NNE 17.3 mph 24.2 mph N/A   Clear
10:55 AM 41.0 °F 31.9 °F 23.0 °F 49% 30.33 in 10.0 mi NE 19.6 mph 23.0 mph N/A   Clear
11:15 AM 42.8 °F 35.8 °F 23.0 °F 46% 30.33 in 10.0 mi North 13.8 mph 23.0 mph N/A   Clear
11:35 AM 42.8 °F 36.2 °F 21.2 °F 42% 30.33 in 10.0 mi NNE 12.7 mph 21.9 mph N/A   Clear
11:55 AM 42.8 °F 35.4 °F 23.0 °F 46% 30.33 in 10.0 mi NE 15.0 mph 19.6 mph N/A   Clear
12:15 PM 44.6 °F 38.1 °F 23.0 °F 43% 30.33 in 10.0 mi North 13.8 mph 23.0 mph N/A   Clear
12:35 PM 44.6 °F 38.1 °F 19.4 °F 37% 30.33 in 10.0 mi North 13.8 mph 20.7 mph N/A   Clear
12:55 PM 44.6 °F 39.7 °F 23.0 °F 43% 30.32 in 10.0 mi NNE 9.2 mph 17.3 mph N/A   Clear
1:15 PM 44.6 °F 38.4 °F 23.0 °F 43% 30.32 in 10.0 mi North 12.7 mph 21.9 mph N/A   Clear
1:35 PM 44.6 °F 37.4 °F 23.0 °F 43% 30.31 in 10.0 mi NNE 16.1 mph 20.7 mph N/A   Clear
1:55 PM 46.4 °F 40.4 °F 23.0 °F 40% 30.31 in 10.0 mi North 13.8 mph 21.9 mph N/A   Clear
2:15 PM 46.4 °F 40.4 °F 23.0 °F 40% 30.30 in 10.0 mi North 13.8 mph 20.7 mph N/A   Clear
2:35 PM 46.4 °F 40.7 °F 23.0 °F 40% 30.30 in 10.0 mi NNE 12.7 mph 21.9 mph N/A   Clear
2:55 PM 46.4 °F 40.7 °F 24.8 °F 43% 30.30 in 10.0 mi North 12.7 mph 17.3 mph N/A   Clear
3:15 PM 46.4 °F 39.8 °F 24.8 °F 43% 30.29 in 10.0 mi North 16.1 mph 23.0 mph N/A   Partly Cloudy
3:35 PM 46.4 °F 40.1 °F 23.0 °F 40% 30.29 in 10.0 mi North 15.0 mph 20.7 mph N/A   Clear
3:55 PM 46.4 °F 41.1 °F 23.0 °F 40% 30.29 in 10.0 mi North 11.5 mph 20.7 mph N/A   Clear
4:15 PM 46.4 °F 40.4 °F 23.0 °F 40% 30.28 in 10.0 mi North 13.8 mph 20.7 mph N/A   Clear
4:35 PM 46.4 °F 40.1 °F 21.2 °F 37% 30.28 in 10.0 mi NNE 15.0 mph 24.2 mph N/A   Clear
4:55 PM 46.4 °F 41.5 °F 21.2 °F 37% 30.28 in 10.0 mi North 10.4 mph 18.4 mph N/A   Clear
5:15 PM 46.4 °F 40.4 °F 19.4 °F 34% 30.29 in 10.0 mi North 13.8 mph 21.9 mph N/A   Clear
5:35 PM 46.4 °F 40.1 °F 21.2 °F 37% 30.28 in 10.0 mi North 15.0 mph - N/A   Clear
5:55 PM 46.4 °F 40.1 °F 21.2 °F 37% 30.28 in 10.0 mi North 15.0 mph - N/A   Clear
6:15 PM 44.6 °F 38.8 °F 21.2 °F 39% 30.28 in 10.0 mi North 11.5 mph 19.6 mph N/A   Clear
6:35 PM 44.6 °F 37.8 °F 21.2 °F 39% 30.29 in 10.0 mi NE 15.0 mph 19.6 mph N/A   Clear
6:55 PM 42.8 °F 35.8 °F 19.4 °F 39% 30.29 in 10.0 mi NNE 13.8 mph - N/A   Clear
7:15 PM 41.0 °F 35.2 °F 19.4 °F 42% 30.29 in 10.0 mi NE 9.2 mph - N/A   Clear
7:35 PM 39.2 °F 33.6 °F 19.4 °F 45% 30.29 in 10.0 mi NE 8.1 mph - N/A   Clear
7:55 PM 39.2 °F 33.6 °F 19.4 °F 45% 30.30 in 10.0 mi NE 8.1 mph - N/A   Clear
8:15 PM 39.2 °F 33.6 °F 19.4 °F 45% 30.31 in 10.0 mi NE 8.1 mph - N/A   Clear
8:35 PM 37.4 °F 31.4 °F 19.4 °F 48% 30.32 in 10.0 mi NNE 8.1 mph - N/A   Clear
8:55 PM 37.4 °F 32.8 °F 17.6 °F 45% 30.32 in 10.0 mi NNE 5.8 mph - N/A   Clear
9:15 PM 37.4 °F 32.1 °F 17.6 °F 45% 30.33 in 10.0 mi NNE 6.9 mph - N/A   Clear
9:35 PM 37.4 °F 32.1 °F 17.6 °F 45% 30.33 in 10.0 mi NNE 6.9 mph - N/A   Clear
9:55 PM 35.6 °F 30.7 °F 17.6 °F 48% 30.34 in 10.0 mi North 5.8 mph - N/A   Clear
10:15 PM 35.6 °F 31.7 °F 17.6 °F 48% 30.35 in 10.0 mi NNE 4.6 mph - N/A   Clear
10:35 PM 35.6 °F 30.7 °F 17.6 °F 48% 30.35 in 10.0 mi NNE 5.8 mph - N/A   Clear
10:55 PM 33.8 °F 28.6 °F 17.6 °F 52% 30.34 in 10.0 mi North 5.8 mph - N/A   Clear
11:15 PM 32.0 °F 25.6 °F 19.4 °F 60% 30.34 in 10.0 mi North 6.9 mph - N/A   Clear
11:35 PM 32.0 °F 26.4 °F 17.6 °F 55% 30.34 in 10.0 mi NNE 5.8 mph - N/A   Clear
11:55 PM 32.0 °F 26.4 °F 17.6 °F 55% 30.34 in 10.0 mi North 5.8 mph - N/A   Clear